Regional Weather Roundup
Issued by NWS

Home | Current Version | Previous Version | Graphics & Text | Print | Product List | Glossary Off
Versions: 1 2 3 4 5 6 7 8 9 10 11 12 13 14 15 16 17 18 19 20 21 22 23 24 25 26 27 28 29 30 31 32 33 34 35 36 37 38 39 40 41 42 43 44 45 46 47 48 49 50

000
ASUS43 KIND 210309
RWRIN

WEATHER ROUNDUP FOR INDIANA
NATIONAL WEATHER SERVICE INDIANAPOLIS IN
1000 PM EST SAT JAN 20 2018

NOTE: "FAIR" INDICATES FEW OR NO CLOUDS BELOW 12,000 FEET WITH NO
SIGNIFICANT WEATHER AND/OR OBSTRUCTIONS TO VISIBILITY.

* - STATION DOES NOT REPORT WEATHER SUCH AS PRECIPITATION OR FOG.

+ - STATION NOT QUALITY CONTROLLED BY THE NATIONAL WEATHER SERVICE.
    USE DATA WITH CAUTION...ESPECIALLY DEWPOINT AND RELATIVE
    HUMIDITY OBSERVATIONS.

INZ001>003-010>013-019-020-210400-
NORTHWEST INDIANA

CITY           SKY/WX    TMP DP  RH WIND       PRES   REMARKS
GARY /AIRPORT/ CLOUDY    41  37  87 VRB6      30.01F
MONTICELLO +   CLOUDY    38  32  78 S6        30.03F WCI  34

$$

LMZ046-743>745-210400-
SOUTHERN LAKE MICHIGAN

STATION/POSITION TIME  TEMP    WIND        PRES    WAVE
                       AIR SEA DIR/SP/G            HT
                 (UTC) (F)     (DEG/KT/KT) (MB)    (FT)
BURNS HARBOR     0240   39     190/  9/ 11 1016.9S
MICHIGAN CITY    0230   38     170/ 10/ 11   N/A

$$

INZ004-005-014>016-021>024-210400-
NORTH CENTRAL INDIANA

CITY           SKY/WX    TMP DP  RH WIND       PRES   REMARKS
GOSHEN         CLOUDY    37  35  92 S7        30.03F FOG     WCI  32
SOUTH BEND     NOT AVBL

$$

INZ006>009-017-018-025>027-210400-
NORTHEAST INDIANA

CITY           SKY/WX    TMP DP  RH WIND       PRES   REMARKS
FORT WAYNE     NOT AVBL
KENDALLVILLE + CLOUDY    36  35  97 SW6       30.05R FOG     WCI  31

$$

INZ028-029-035-036-043>045-051>053-210400-
WEST CENTRAL INDIANA

CITY           SKY/WX    TMP DP  RH WIND       PRES   REMARKS
LAFAYETTE      NOT AVBL
TERRE HAUTE    CLOUDY    40  38  93 S5        30.06F FOG     WCI  37

$$

INZ030>032-037>040-046>048-054>057-064-065-210400-
CENTRAL INDIANA

CITY           SKY/WX    TMP DP  RH WIND       PRES   REMARKS
FISHERS *+     CLOUDY    39  39 100 S5        30.08  WCI  36
INDIANAPOLIS   NOT AVBL
-EAGLE CREEK   FOG       41  39  93 CALM      30.07S VSB 3/4
SHELBYVILLE    FOG       38  36  92 S7        30.08S VSB 1/4 WCI  33

$$

INZ033-034-041-042-049-050-058-059-210400-
EAST CENTRAL INDIANA

CITY           SKY/WX    TMP DP  RH WIND       PRES   REMARKS
MUNCIE         CLOUDY    41  33  73 S6        30.07S
RICHMOND +     CLOUDY    36  36 100 SW6       30.10R FOG     WCI  31

$$

INZ060-061-067>069-081>083-085>088-210400-
SOUTHWEST INDIANA

CITY           SKY/WX    TMP DP  RH WIND       PRES   REMARKS
EVANSVILLE     NOT AVBL

$$

INZ062-063-066-070>080-084-089>092-210400-
SOUTH CENTRAL AND SOUTHEAST INDIANA

CITY           SKY/WX    TMP DP  RH WIND       PRES   REMARKS
BEDFORD +      CLOUDY    45  39  81 S6        30.08S
BLOOMINGTON    CLOUDY    43  40  89 S3        30.06F
NORTH VERNON + CLOUDY    41  41 100 S6        30.10S
SEYMOUR +      CLOUDY    45  41  87 S6        30.09S

$$





USA.gov is the U.S. government's official web portal to all federal, state and local government web resources and services.